Aberdeen, SD

2:34 AM CST on November 21, 2019 (GMT -0600)
Aberdeen Regional

Weather History for KABR - October, 2019

Change the Weather History Date:

Friday, October 18, 2019

  Actual Average Record
Temperature  
Mean Temperature 54 °F 44 °F  
Max Temperature 64 °F 57 °F 90 °F (1910)
Min Temperature 42 °F 32 °F 12 °F (1930)
Degree Days  
Heating Degree Days 12    
Month to date heating degree days 377  
Since 1 July heating degree days 520  
Cooling Degree Days 0    
Month to date cooling degree days 0  
Year to date cooling degree days 601  
Growing Degree Days 4 (Base 50)    
Moisture  
Dew Point 42 °F    
Average Humidity 62    
Maximum Humidity 77    
Minimum Humidity 44    
Precipitation  
Precipitation 0.00 in 0.07 in 2.00 in (1944)
Month to date precipitation 2.06 1.30  
Year to date precipitation 27.22 19.78  
Snow  
Snow 0.00 in 0.10 in 2.40 in (1976)
Month to date snowfall 5.0 0.2  
Since 1 July snowfall 5.0 0.2  
Snow Depth 0.00 in    
Sea Level Pressure  
Sea Level Pressure 29.48 in    
Wind  
Wind Speed 13 mph ()    
Max Wind Speed 22 mph    
Max Gust Speed 32 mph    
Visibility 9.1 miles    
Events      
T = Trace of Precipitation, MM = Missing Value Source: Averaged Metar Reports

Daily Weather History Graph

Daily Weather History Graph

Search for Another Location

Airport or City:

Astronomy

Oct. 18, 2019 Rise Set
Actual Time 7:53 AM CDT 6:43 PM CDT
Civil Twilight 7:23 AM CDT 7:13 PM CDT
Nautical Twilight 6:49 AM CDT 7:47 PM CDT
Astronomical Twilight 6:15 AM CDT 8:21 PM CDT
Moon 9:49 PM CDT (10/18) 12:39 PM CDT (10/18)
Length of Visible Light 11h 49m
Length of Day
10h 49m
Waning Gibbous, 78% of the Moon is Illuminated
Oct 18
Waning Gibbous
Oct 21
Last Quarter
Oct 27
New
Nov 4
First Quarter
Nov 12
Full

Hourly Weather History & Observations

Time (CDT) Temp. Dew Point Humidity Pressure Visibility Wind Dir Wind Speed Gust Speed Precip Events Conditions
12:53 AM 55.0 °F 43.0 °F 64% 29.51 in 10.0 mi SSE 18.4 mph 28.8 mph N/A   Clear
1:53 AM 54.0 °F 43.0 °F 66% 29.49 in 10.0 mi SSE 16.1 mph 28.8 mph N/A   Clear
2:53 AM 53.1 °F 43.0 °F 69% 29.48 in 10.0 mi SSE 17.3 mph - N/A   Clear
3:53 AM 53.1 °F 43.0 °F 69% 29.46 in 10.0 mi South 15.0 mph 25.3 mph N/A   Clear
4:53 AM 52.0 °F 43.0 °F 71% 29.44 in 10.0 mi South 18.4 mph 26.5 mph N/A   Clear
5:53 AM 52.0 °F 43.0 °F 71% 29.43 in 10.0 mi South 16.1 mph - N/A   Clear
6:53 AM 51.1 °F 43.0 °F 74% 29.43 in 10.0 mi SSE 15.0 mph - N/A   Clear
7:53 AM 50.0 °F 42.1 °F 74% 29.43 in 10.0 mi South 11.5 mph 19.6 mph N/A   Clear
8:53 AM 52.0 °F 43.0 °F 71% 29.42 in 10.0 mi South 15.0 mph 23.0 mph N/A   Clear
9:53 AM 55.0 °F 43.0 °F 64% 29.43 in 10.0 mi South 12.7 mph 23.0 mph N/A   Clear
10:53 AM 57.9 °F 43.0 °F 58% 29.41 in 10.0 mi South 16.1 mph 25.3 mph N/A   Clear
11:53 AM 61.0 °F 44.1 °F 54% 29.39 in 10.0 mi South 13.8 mph - N/A   Clear
12:53 PM 64.0 °F 43.0 °F 46% 29.39 in 10.0 mi SW 10.4 mph 23.0 mph N/A   Clear
1:53 PM 64.0 °F 44.1 °F 48% 29.40 in 10.0 mi WSW 11.5 mph 19.6 mph N/A   Clear
2:53 PM 64.9 °F 44.1 °F 47% 29.40 in 10.0 mi WSW 8.1 mph - N/A   Clear
3:53 PM 63.0 °F 46.0 °F 54% 29.43 in 10.0 mi WNW 10.4 mph - N/A   Scattered Clouds
4:53 PM 63.0 °F 46.0 °F 54% 29.46 in 10.0 mi NW 16.1 mph - N/A   Partly Cloudy
5:53 PM 60.1 °F 41.0 °F 49% 29.49 in 10.0 mi NW 15.0 mph - N/A   Clear
6:53 PM 53.1 °F 39.9 °F 61% 29.52 in 10.0 mi NW 6.9 mph - N/A   Clear
7:53 PM 55.0 °F 39.0 °F 55% 29.57 in 10.0 mi WNW 10.4 mph - N/A   Clear
8:53 PM 54.0 °F 37.9 °F 55% 29.59 in 5.0 mi WNW 16.1 mph 23.0 mph N/A   Haze
9:53 PM 53.1 °F 39.0 °F 59% 29.62 in 5.0 mi West 12.7 mph - N/A   Haze
10:53 PM 52.0 °F 39.9 °F 63% 29.63 in 2.5 mi West 8.1 mph - N/A   Haze
11:24 PM 48.9 °F 39.9 °F 71% 29.62 in 4.0 mi SW 5.8 mph - N/A   Haze
11:53 PM 46.9 °F 39.9 °F 77% 29.64 in 10.0 mi SW 6.9 mph - N/A   Clear